Location: Caltech
(34.1382°N, 118.1253°W)
Time: 00:33:03
(UTC-07:00)

JAS-2 - Visible Passes

Search period start: 17 September 2014 00:00
Search period end: 27 September 2014 00:00
Orbit: 800 x 1322 km, 98.5° (Epoch: 16 September)

Date Brightness Start Highest point End Pass type
(mag) Time Alt. Az. Time Alt. Az. Time Alt. Az.
17 Sep 12.4 05:33:44 10° NE 05:38:09 20° E 05:42:52 10° SE visible
19 Sep 12.5 05:28:57 10° NE 05:33:15 19° E 05:37:52 10° SE visible
21 Sep 12.6 05:24:11 10° NE 05:28:23 18° E 05:32:50 10° SE visible
22 Sep 11.0 06:12:32 10° NNE 06:18:39 48° E 06:25:30 10° S visible
23 Sep 12.6 05:19:26 10° NE 05:23:30 17° E 05:27:48 10° SE visible
24 Sep 11.2 06:07:38 10° NNE 06:13:49 45° E 06:20:41 10° S visible
25 Sep 12.7 05:14:44 10° ENE 05:18:38 16° E 05:22:43 10° SE visible
26 Sep 11.3 06:02:44 10° NNE 06:08:58 42° E 06:15:51 10° SSE visible
